Regional Weather Roundup
Issued by NWS

Home | Current Version | Previous Version | Text Only | Print | Product List | Glossary On
Versions: 1 2 3 4 5 6 7 8 9 10 11 12 13 14 15 16 17 18 19 20 21 22 23 24 25 26 27 28 29 30 31 32 33 34 35 36 37 38 39 40 41 42 43 44 45 46 47 48 49 50
000
ASUS43 KFSD 301510
RWRSD

WEATHER ROUNDUP FOR SOUTH DAKOTA
NATIONAL WEATHER SERVICE SIOUX FALLS SD
1000 AM CDT SAT AUG 30 2014

NOTE: "FAIR" INDICATES FEW OR NO CLOUDS BELOW 12,000 FEET WITH NO
SIGNIFICANT WEATHER AND/OR OBSTRUCTIONS TO VISIBILITY.


SDZ001>005-009-010-012>017-301600-
NORTHWEST AND NORTH CENTRAL SOUTH DAKOTA

CITY           SKY/WX    TMP DP  RH WIND       PRES   REMARKS
BUFFALO          N/A     57  55  93 SE17      29.82F
FAITH            N/A     59  55  87 SE17G23   29.93F
MOBRIDGE       MOSUNNY   58  57  97 E6        29.93F
$$

SDZ012>016-024>037-041>051-057-063-072>074-301600-
SOUTHWEST AND SOUTH CENTRAL SOUTH DAKOTA

CITY           SKY/WX    TMP DP  RH WIND       PRES   REMARKS
RAPID CTY ARPT SUNNY     62  57  83 SE13      29.91F
PIERRE         MOSUNNY   61  56  83 SE9       29.95F
CUSTER         SUNNY     64  51  62 CALM      30.01F
ELLSWORTH AFB  SUNNY     63  56  79 SE12      29.90F
PHILIP         SUNNY     64  55  72 E10       29.94F
PINE RIDGE     SUNNY     67  58  72 S10       29.93F
WINNER         CLOUDY    60  58  92 S3        29.98F
$$

SDZ004>011-016>023-039-040-301600-
NORTHEAST SOUTH DAKOTA

CITY           SKY/WX    TMP DP  RH WIND       PRES   REMARKS
ABERDEEN       CLOUDY    59  55  87 N9        29.94F
WATERTOWN      CLOUDY    60  57  89 NW7       29.93R
SISSETON         N/A     62  56  80 N10       29.91S
$$

SDZ017-020-022-023-036>040-048>070-301600-
SOUTHEAST SOUTH DAKOTA

CITY           SKY/WX    TMP DP  RH WIND       PRES   REMARKS
SIOUX FALLS    CLOUDY    66  62  87 NW12      29.93R
HURON          CLOUDY    61  57  87 N8        29.94S
CHAMBERLAIN    CLOUDY    56  55  94 CALM      29.98R
MITCHELL       CLOUDY    61  58  90 NW7       29.96S
YANKTON        CLOUDY    63  57  82 W8        29.96S
$$

ABBREVIATIONS USED IN REMARKS
   TC - TEMPERATURE IN CELSIUS
  WCI - WIND CHILL INDEX
   HX - HEAT INDEX
  VSB - VISIBILITY




USA.gov is the U.S. government's official web portal to all federal, state and local government web resources and services.